Location: Unspecified
(48.7670°N, 0.0000°E)
Time: 06:34:24
(UTC+00:00)

Altair - Pass Details

Date: 25 June 2019
Orbit: 1501 x 1683 km, 47.2° (Epoch: 14 July)

Event Time Altitude Azimuth Distance (km) Brightness Sun altitude
Rises 23:22:23 0° 282° (WNW) 4,784 10.4 -17.3°
Reaches altitude 10° 23:25:27 10° 280° (W) 3,822 9.8 -17.4°
Maximum altitude 23:35:09 69° 200° (SSW) 1,739 7.5 -17.6°
Drops below altitude 10° 23:45:08 10° 120° (ESE) 3,931 9.3 -17.8°
Sets 23:48:20 0° 118° (ESE) 4,926 9.8 -17.8°
